Miscellaneous Local Product
Issued by NWS North Platte, NE

Home | Current Version | Previous Version | Graphics & Text | Print | Product List | Glossary On
Versions: 1 2 3 4 5 6 7 8 9 10 11 12 13 14 15 16 17 18 19 20 21 22 23 24 25 26 27 28 29 30 31 32 33 34 35 36 37 38 39 40 41 42 43 44 45 46 47 48 49 50
000
AXUS43 KLBF 022310
MISLBF


WESTERN AND NORTH CENTRAL NEBRASKA HOURLY WEATHER ROUNDUP
NATIONAL WEATHER SERVICE NORTH PLATTE NE
600 PM CDT WED SEP 02 2015

NOTE: "FAIR" INDICATES FEW OR NO CLOUDS BELOW 12,000 FEET WITH NO
SIGNIFICANT WEATHER AND/OR OBSTRUCTIONS TO VISIBILITY.

NOTE: STATIONS NOT REPORTING VARIABLES SUCH AS SKY/WEATHER OR
PRESSURE ARE PROVIDED BY THE NEBRASKA DEPARTMENT OF
ROADS...RAWS...AND APRS NETWORKS...AND ARE NOT UNDER
NATIONAL WEATHER SERVICE QUALITY CONTROL.

...OBSERVATIONS IN AND NEAR THE EASTERN PANHANDLE OF NEBRASKA...

CITY           SKY/WX    TMP DP  RH WIND       PRES   REMARKS
PINE RIDGE     SUNNY     95  44  17 SW10G18   29.82F HX  91
CHADRON        SUNNY     98  43  15 SE9       29.80F HX  94
ALLIANCE       SUNNY     94  41  16 VRB7      29.88F HX  90
SIDNEY         SUNNY     93  42  17 S7        29.93F
CRESCENT LAKE    N/A     95  46  18 S7          N/A  HX  91
BIG SPRINGS      N/A     92  57  30 S6          N/A  HX  90
$$

...OBSERVATIONS IN NORTH CENTRAL NEBRASKA...

CITY           SKY/WX    TMP DP  RH WIND       PRES   REMARKS
VALENTINE      MOSUNNY   98  42  14 S10G29    29.79R HX  94
THEDFORD       MOSUNNY   98  52  20 S12G17    29.83F HX  96
AINSWORTH      SUNNY     97  50  20 S7        29.80S HX  93
O`NEILL        MOSUNNY   92  66  42 SE15      29.81S HX  95
ORD            SUNNY     94  61  33 S10       29.81S HX  94
BROKEN BOW     SUNNY     94  56  27 S12G17    29.84S HX  92
SPRINGVIEW       N/A    100  62  28 SE10G20     N/A  HX 101
SARGENT          N/A     95  60  31 E3          N/A  HX  95
CHAMBERS         N/A     87  65  47 S3          N/A
EWING            N/A     88  74  62 S5G13       N/A  HX  96
$$

...OBSERVATIONS IN SOUTHWEST NEBRASKA AND FAR NORTHEAST COLORADO...

CITY           SKY/WX    TMP DP  RH WIND       PRES   REMARKS
WRAY           CLOUDY    98  40  13 S6        29.88F HX  93
HOLYOKE        FAIR      95  48  20 CALM      29.89F HX  91
IMPERIAL       MOSUNNY   97  48  18 SW8       29.85F HX  93
OGALLALA       PTSUNNY   96  50  20 S8        29.86S HX  93
NORTH PLATTE   SUNNY     92  62  36 SE10      29.83F HX  92
MCCOOK         SUNNY     99  54  22 SE9       29.82F HX  97
LEXINGTON      MOSUNNY   93  60  32 SE10      29.84S HX  93
PAXTON           N/A     93  60  33 S6          N/A  HX  92
BRADY            N/A     93  64  38 NE3         N/A  HX  94
CALLAWAY         N/A     87  70  57 S9          N/A  HX  92
$$

...OBSERVATIONS IN CENTRAL LINCOLN COUNTY AREA...

CITY           SKY/WX    TMP DP  RH WIND       PRES   REMARKS
N.P. AIRPORT   SUNNY     92  62  36 SE10      29.83F HX  92
N.P. DOWNTOWN    N/A     96  51  21 MISG        N/A  HX  93
N.P. SOUTHEAST   N/A     96  52  22 S6          N/A  HX  93
N.P. HILLCREST   N/A     94  60  31 SE9         N/A  HX  93
$$

...SOME OBSERVATIONS FROM AROUND THE REGION...

CITY           SKY/WX    TMP DP  RH WIND       PRES   REMARKS
DENVER         PTSUNNY   89  33  13 VRB6      30.01F
LARAMIE        MOSUNNY   78  36  21 W7        30.14F
CHEYENNE       MOSUNNY   88  34  14 W6        30.05F
SCOTTSBLUFF    SUNNY     94  38  14 CALM      29.88F
RAPID CITY     SUNNY     94  50  22 SW8       29.76F HX  91
PIERRE         SUNNY     94  66  39 SE13      29.69F HX  97
WINNER         FAIR     100  52  19 S10       29.74S HX  97
SIOUX FALLS    PTSUNNY   85  73  67 S13       29.81R HX  91
OMAHA          MOSUNNY   90  70  51 S18G25    29.83F HX  95
GRAND ISLAND   MOSUNNY   93  62  35 S15       29.83S HX  93
KANSAS CITY    SUNNY     87  67  51 S14       29.92S HX  90
WICHITA        MOSUNNY   92  64  39 S18       29.88F HX  93
HAYS           SUNNY    100  55  22 S21G35    29.79S HX  99
LIBERAL        PTSUNNY   95  54  24 S17G25    29.90F HX  93
GOODLAND       SUNNY     95  45  17 SW6       29.87F HX  91
$$



USA.gov is the U.S. government's official web portal to all federal, state and local government web resources and services.